This is the latest recevied weather packets stored in our database for station/object WX1NWA. If no packets are shown the sender has not sent any weather packets the latest 10 day(s).
| Time | Temp. | Humidity | Pressure | Rain* | Wind** | Luminosity | Snow |
|---|---|---|---|---|---|---|---|
| 1777737098 | 16.11° C | 47% | 1022.8 hPa | 0 mm | - | 792 W/m² | - |
| 1777736794 | 16.67° C | 49% | 1022.8 hPa | 0 mm | - | 761 W/m² | - |
| 1777736165 | 15° C | 51% | 1023 hPa | 0 mm | - | 739 W/m² | - |
| 1777735863 | 15° C | 50% | 1022.9 hPa | 0 mm | - | 734 W/m² | - |
| 1777735560 | 14.44° C | 51% | 1022.7 hPa | 0 mm | - | 718 W/m² | - |
| 1777735257 | 15° C | 50% | 1022.9 hPa | 0 mm | - | 703 W/m² | - |
| 1777734954 | 15.56° C | 49% | 1023 hPa | 0 mm | - | 705 W/m² | - |
| 1777734652 | 15.56° C | 53% | 1022.8 hPa | 0 mm | - | 708 W/m² | - |
| 1777734349 | 15° C | 52% | 1022.8 hPa | 0 mm | - | 687 W/m² | - |
| 1777734045 | 14.44° C | 53% | 1022.9 hPa | 0 mm | - | 669 W/m² | - |
| 1777733741 | 15° C | 55% | 1022.9 hPa | 0 mm | - | 635 W/m² | - |
| 1777733438 | 14.44° C | 58% | 1022.8 hPa | 0 mm | - | 613 W/m² | - |
| 1777733134 | 15° C | 55% | 1022.8 hPa | 0 mm | - | 599 W/m² | - |
| 1777732831 | 14.44° C | 58% | 1022.7 hPa | 0 mm | - | 563 W/m² | - |
| 1777732528 | 14.44° C | 57% | 1022.8 hPa | 0 mm | - | 546 W/m² | - |
| 1777732226 | 14.44° C | 60% | 1022.8 hPa | 0 mm | - | 530 W/m² | - |
| 1777731923 | 13.89° C | 59% | 1022.7 hPa | 0 mm | - | 504 W/m² | - |
| 1777731619 | 13.89° C | 60% | 1022.5 hPa | 0 mm | - | 479 W/m² | - |
| 1777731317 | 12.78° C | 60% | 1022.4 hPa | 0 mm | - | 445 W/m² | - |
| 1777731014 | 13.33° C | 61% | 1022.4 hPa | 0 mm | - | 391 W/m² | - |
| 1777730713 | 13.33° C | 60% | 1022.6 hPa | 0 mm | - | 367 W/m² | - |
| 1777730409 | 13.33° C | 60% | 1022.4 hPa | 0 mm | - | 348 W/m² | - |
| 1777730104 | 12.78° C | 60% | 1022.3 hPa | 0 mm | - | 317 W/m² | - |
| 1777729801 | 12.78° C | 62% | 1022.5 hPa | 0 mm | - | 299 W/m² | - |
| 1777729498 | 12.78° C | 61% | 1022.2 hPa | 0 mm | - | 288 W/m² | - |
* Rain latest hour (hover to see other rain measurements)
** Current wind speed in m/s (hover to see current wind gust speed)